Wind_Speed
7 7 8 8 8 8 7 7 7 7 8 8 9 9 8 8 7 7 8 8 8 8 9 8 9 9 9 9 10 10 10 10 11 11 11 11 11 11 11 11 12 12 12
7 7 7 8 7 7 7 7 7 7 7 8 8 8 8 8 7 7 7 7 7 8 7 7 8 8 8 8 8 8 9 9 10 10 10 11 10 10 11 11 11 11 12
6 6 7 7 7 7 6 6 7 7 7 7 7 7 7 7 7 7 7 7 7 7 6 6 7 7 7 7 8 8 7 9 9 9 9 9 10 10 10 10 10 11 11
6 6 6 7 6 7 7 7 7 8 7 7 7 8 7 8 8 7 7 7 7 7 6 6 7 7 7 7 7 7 7 7 7 7 8 8 8 9 9 9 9 10 10
6 6 6 7 7 8 8 8 8 8 8 7 7 7 7 8 7 7 7 7 7 7 7 6 7 7 7 7 7 7 7 7 7 6 6 7 7 7 8 8 8 8 9
6 6 6 6 7 7 7 7 8 7 7 7 6 6 7 7 7 7 7 7 7 6 6 6 7 7 7 7 6 6 7 7 6 6 6 6 6 7 7 7 8 8 8
7 7 7 7 7 7 7 7 7 7 7 7 7 6 7 7 6 7 7 6 6 6 6 7 7 7 7 7 6 6 7 6 6 6 6 6 7 7 7 7 8 8 8
6 6 6 6 7 7 7 7 7 7 7 7 7 7 6 6 6 7 7 6 6 7 7 7 8 8 7 7 6 6 7 6 6 6 6 7 7 7 7 8 8 8 8
6 6 6 7 7 7 7 7 7 7 7 7 6 7 6 6 7 6 6 7 7 7 7 7 7 6 6 7 6 7 7 6 6 6 7 7 7 7 8 8 9 9 9
6 6 7 7 7 6 7 7 7 6 6 6 6 6 6 7 7 7 7 7 7 7 8 8 7 6 6 7 7 7 7 6 6 6 7 8 8 9 9 9 9 9 9
6 7 7 7 8 8 7 7 6 6 6 6 6 6 6 7 7 7 7 7 7 7 7 7 7 6 6 6 6 6 6 6 7 7 7 8 8 9 9 9 9 9 9
7 8 8 9 9 9 8 7 7 7 7 7 7 7 7 7 7 8 8 7 7 7 7 7 6 6 6 6 6 6 6 6 6 7 7 7 7 8 8 8 8 8 8
9 9 9 9 9 9 9 8 7 7 7 7 7 7 7 6 6 6 7 7 8 7 7 7 7 6 6 6 6 6 6 7 7 8 8 8 8 8 8 8 8 8 8
9 9 9 10 10 10 10 9 8 8 8 7 7 7 7 6 6 6 6 7 8 8 7 7 7 6 6 6 7 7 7 7 8 8 8 8 8 8 8 8 8 9 9
9 9 10 10 10 10 10 10 10 9 8 8 8 7 7 7 7 7 7 7 7 8 8 7 7 7 7 7 7 7 8 8 8 8 9 9 8 8 8 9 9 9 8
11 10 10 10 10 10 11 10 10 10 9 9 9 8 8 8 8 8 8 8 7 7 7 8 8 7 7 7 8 8 8 8 8 8 8 9 9 9 9 9 9 9 8
12 12 11 11 11 10 11 11 11 10 10 9 9 9 9 9 9 8 8 8 8 8 8 8 8 8 8 8 8 8 8 8 8 8 8 8 8 8 8 9 9 9 9
13 13 13 12 12 12 11 11 11 11 11 10 10 10 9 9 8 8 8 7 8 8 8 8 8 8 8 8 8 8 8 8 8 8 8 8 9 9 9 9 10 10 10
15 15 14 14 13 13 12 12 12 12 11 11 11 11 11 10 9 9 8 8 8 8 8 8 9 9 9 9 9 9 9 9 9 9 8 9 10 10 10 11 10 11 11
17 16 15 15 15 14 14 14 13 13 12 12 12 11 11 11 10 10 9 8 8 9 9 9 9 10 10 10 10 10 9 9 9 10 10 10 11 11 12 12 12 12 12
19 18 17 16 16 16 16 15 15 15 14 13 13 13 12 12 12 12 10 10 10 10 10 10 11 11 11 11 10 10 10 10 10 11 11 11 12 12 13 13 13 13 14
20 19 19 18 17 17 17 16 16 16 14 14 14 13 13 13 13 12 12 11 11 12 12 12 11 11 11 11 11 11 11 11 11 12 12 12 13 13 14 14 14 14 14
22 21 21 20 19 18 18 18 18 17 16 15 15 15 15 14 14 14 14 13 13 13 13 13 13 12 12 13 13 13 13 13 13 13 13 13 14 15 15 15 16 16 15
23 22 22 21 21 20 20 19 19 18 18 18 17 16 16 16 16 15 15 14 14 14 14 14 14 14 14 14 14 15 15 15 15 15 15 15 15 16 16 17 17 18 17
24 23 24 23 22 21 21 21 20 20 19 19 20 19 18 17 17 16 16 16 15 15 15 15 16 16 16 16 16 16 16 16 16 16 16 16 16 17 17 18 18 19 19
24 25 25 24 24 23 22 22 22 22 21 21 21 20 20 20 19 18 18 18 17 16 17 17 17 17 18 18 18 18 17 17 17 17 18 18 18 18 18 19 19 20 20
Wind_Direction
269 268 269 270 268 264 261 260 264 263 264 270 273 272 270 273 271 273 278 281 280 275 270 269 268 269 274 277 276 278 275 273 275 279 280 279 279 282 283 282 281 284 279
272 271 270 268 267 264 256 258 261 262 264 267 269 267 270 272 278 279 279 280 281 279 276 270 268 271 276 277 277 278 279 279 277 278 280 281 282 284 286 286 283 283 283
268 271 267 264 262 258 255 259 263 267 268 264 262 266 268 271 275 277 275 278 283 280 278 275 268 272 273 274 277 279 285 283 277 279 283 284 285 286 285 286 284 285 286
261 268 262 260 259 260 263 263 266 270 271 263 261 264 267 273 274 276 276 277 275 273 274 274 275 273 275 279 281 285 286 284 275 283 286 286 288 287 286 288 286 289 288
259 267 271 261 255 260 264 265 269 272 272 264 263 262 263 269 273 275 276 275 271 271 269 264 268 271 269 272 278 284 286 290 288 291 293 290 287 287 290 291 291 292 295
261 266 268 266 260 259 264 265 269 270 268 265 266 268 270 272 273 275 280 277 271 267 263 260 263 265 269 276 277 281 285 290 292 294 293 293 292 291 292 294 294 297 301
262 267 267 265 260 261 266 268 271 269 267 264 264 265 268 268 268 278 283 279 272 263 259 263 264 266 271 279 277 279 285 289 294 294 292 294 294 296 298 301 300 302 305
261 267 266 263 260 266 269 273 273 270 268 264 261 261 263 262 258 270 278 284 274 263 262 269 271 272 271 275 278 278 282 282 284 288 291 294 295 299 300 302 301 303 307
263 264 267 262 260 264 269 272 270 272 267 263 264 264 263 265 267 266 274 277 273 271 269 273 273 274 276 275 276 279 277 277 280 284 292 296 298 296 294 295 299 303 305
271 267 264 260 261 263 266 268 267 268 265 262 264 266 266 270 267 263 266 269 269 269 271 275 273 275 281 277 274 279 280 276 278 285 294 298 297 297 294 294 300 303 306
269 266 261 261 261 261 260 263 260 262 262 262 267 270 272 273 269 262 261 263 264 264 266 267 270 275 277 279 276 278 277 278 286 293 294 296 297 299 300 300 301 304 307
265 264 261 261 263 261 258 259 258 260 261 263 269 271 273 275 273 266 261 259 258 261 261 260 266 272 275 273 274 276 279 288 292 294 298 298 300 303 308 309 306 309 311
264 261 256 258 261 259 257 257 254 259 262 261 264 271 275 273 271 266 262 261 259 259 259 259 262 268 277 279 282 279 282 288 290 294 295 297 300 306 308 309 305 305 309
262 255 255 256 255 254 254 254 252 258 261 260 263 266 269 264 262 266 268 266 260 256 255 257 261 268 277 281 283 284 289 289 292 295 296 298 299 304 306 308 307 304 307
263 257 256 252 249 251 255 253 249 253 258 260 262 262 264 259 260 265 267 267 265 257 255 256 259 266 274 279 284 288 293 290 290 294 296 298 299 299 302 307 310 307 308
261 259 255 249 250 251 252 254 252 253 255 257 258 256 259 264 262 263 263 264 261 259 257 256 261 266 274 282 282 286 291 292 291 296 297 296 297 297 300 301 306 309 310
261 258 254 250 250 252 252 253 252 252 254 255 254 254 256 258 260 262 263 261 260 258 259 258 261 266 274 280 284 287 291 295 295 300 303 301 304 303 303 304 310 310 308
258 256 253 248 248 248 247 249 251 253 254 256 254 251 250 250 257 259 261 263 262 259 257 259 263 268 275 278 282 288 293 296 296 301 301 300 302 304 305 306 308 310 311
256 254 251 249 248 247 249 249 251 253 253 254 253 250 249 248 252 254 256 258 258 257 258 262 264 269 273 276 280 284 290 295 297 301 301 300 301 303 306 306 305 307 308
253 251 252 250 247 247 249 251 253 252 251 252 252 249 249 247 250 250 256 259 257 256 258 262 266 272 275 276 279 284 288 291 296 300 301 300 303 306 305 305 303 305 306
250 249 248 248 247 247 248 250 252 250 248 249 251 249 250 249 250 252 256 257 255 256 260 263 265 270 273 274 276 280 284 290 294 299 304 302 302 304 304 303 302 303 305
250 247 246 247 247 247 247 249 250 249 248 249 252 252 252 252 251 249 251 257 258 260 262 263 263 267 270 273 273 274 280 285 290 293 298 302 302 303 303 302 301 301 303
250 247 245 245 247 246 247 248 248 248 248 250 252 252 252 253 251 248 252 257 259 259 262 264 263 265 269 272 272 275 278 282 286 288 290 295 297 301 302 302 303 301 301
249 247 245 246 247 246 246 247 249 249 249 250 250 248 249 252 253 250 253 257 258 257 261 262 262 263 267 270 272 274 276 279 284 286 288 292 294 297 299 301 303 302 300
246 245 245 246 247 247 246 246 247 248 249 252 251 249 249 250 252 251 253 256 257 257 259 261 261 262 264 267 270 274 277 280 284 285 287 290 292 295 298 301 302 302 301
247 244 243 245 247 246 245 246 248 249 251 252 253 251 249 248 250 251 253 255 256 257 259 261 262 264 265 267 269 272 275 279 283 285 286 287 290 293 297 299 300 300 299
Height
5854 5854 5854 5854 5854 5854 5854 5854 5854 5854 5854 5854 5854 5854 5854 5854 5853 5853 5853 5853 5852 5852 5852 5852 5852 5851 5851 5850 5850 5850 5849 5849 5848 5848 5847 5847 5847 5846 5845 5844 5844 5843 5842
5852 5852 5852 5852 5852 5852 5852 5852 5852 5852 5852 5852 5852 5852 5852 5852 5852 5851 5851 5851 5851 5850 5850 5849 5849 5849 5849 5848 5848 5848 5847 5847 5846 5846 5845 5845 5844 5844 5843 5842 5841 5840 5839
5850 5850 5850 5850 5850 5850 5850 5850 5850 5850 5850 5850 5850 5850 5850 5850 5850 5850 5849 5849 5849 5848 5848 5847 5847 5847 5847 5847 5846 5846 5845 5845 5844 5844 5843 5842 5842 5841 5841 5840 5839 5838 5837
5849 5849 5849 5849 5849 5849 5848 5849 5849 5849 5849 5849 5849 5848 5848 5848 5848 5848 5848 5847 5847 5847 5846 5846 5845 5845 5845 5845 5844 5844 5843 5843 5842 5841 5841 5840 5840 5839 5839 5838 5837 5835 5834
5847 5847 5847 5847 5847 5847 5847 5847 5847 5847 5847 5847 5847 5847 5847 5846 5846 5846 5846 5845 5845 5845 5845 5844 5844 5844 5844 5843 5843 5842 5842 5841 5840 5840 5839 5839 5838 5837 5836 5835 5834 5833 5832
5845 5845 5845 5845 5846 5845 5845 5845 5845 5845 5845 5845 5845 5845 5845 5845 5845 5844 5844 5844 5844 5843 5843 5843 5843 5842 5842 5842 5841 5841 5840 5840 5839 5838 5838 5837 5836 5836 5835 5834 5832 5831 5830
5843 5843 5843 5844 5844 5844 5844 5844 5843 5843 5843 5843 5844 5844 5843 5843 5843 5843 5843 5842 5842 5842 5842 5841 5841 5841 5840 5840 5840 5839 5839 5838 5837 5837 5836 5836 5835 5834 5833 5832 5831 5829 5828
5841 5842 5842 5842 5842 5842 5842 5842 5842 5841 5841 5842 5842 5842 5842 5842 5841 5841 5841 5841 5840 5840 5840 5840 5839 5839 5839 5838 5838 5838 5838 5837 5836 5835 5835 5834 5833 5832 5831 5830 5829 5828 5826
5840 5840 5840 5840 5840 5840 5840 5840 5840 5840 5840 5840 5840 5840 5840 5840 5840 5840 5839 5839 5839 5839 5838 5838 5838 5837 5837 5837 5837 5836 5836 5835 5835 5834 5833 5833 5832 5831 5829 5828 5827 5826 5824
5838 5838 5838 5838 5838 5838 5838 5838 5838 5838 5838 5838 5838 5838 5838 5838 5838 5838 5838 5838 5837 5837 5837 5837 5836 5836 5836 5835 5835 5835 5834 5834 5833 5832 5832 5831 5830 5829 5827 5826 5825 5823 5822
5836 5836 5836 5836 5836 5836 5836 5836 5836 5836 5836 5836 5836 5836 5836 5836 5836 5836 5836 5836 5836 5836 5835 5835 5835 5834 5834 5834 5833 5833 5833 5832 5832 5831 5829 5828 5827 5826 5825 5824 5822 5821 5820
5834 5833 5833 5834 5834 5834 5834 5834 5834 5834 5834 5835 5834 5834 5834 5834 5834 5834 5834 5834 5834 5834 5834 5833 5833 5833 5832 5832 5832 5832 5831 5831 5830 5829 5828 5827 5826 5825 5823 5822 5821 5819 5818
5831 5831 5831 5831 5831 5832 5832 5832 5832 5832 5832 5832 5833 5832 5832 5832 5832 5832 5832 5832 5832 5832 5832 5832 5832 5831 5831 5831 5830 5830 5829 5829 5828 5827 5826 5825 5824 5823 5821 5820 5819 5817 5816
5828 5828 5828 5828 5829 5829 5829 5830 5830 5830 5830 5830 5830 5830 5830 5830 5830 5830 5830 5830 5830 5830 5830 5830 5830 5830 5829 5829 5829 5828 5828 5827 5826 5825 5824 5823 5822 5821 5820 5818 5817 5816 5814
5825 5825 5825 5826 5826 5826 5827 5827 5828 5828 5828 5828 5828 5828 5828 5828 5828 5828 5828 5828 5828 5828 5828 5828 5828 5828 5828 5827 5827 5826 5826 5825 5824 5823 5822 5821 5820 5819 5818 5817 5815 5814 5812
5822 5822 5822 5823 5823 5823 5824 5825 5825 5825 5826 5826 5826 5826 5826 5826 5826 5826 5826 5826 5826 5826 5826 5826 5826 5826 5826 5826 5825 5824 5824 5823 5822 5821 5820 5819 5818 5817 5816 5815 5813 5812 5810
5818 5819 5819 5819 5820 5820 5821 5822 5822 5823 5823 5823 5823 5824 5824 5824 5824 5824 5824 5824 5824 5824 5824 5824 5824 5824 5824 5824 5823 5822 5822 5821 5820 5819 5818 5817 5816 5815 5814 5813 5811 5809 5808
5815 5815 5815 5816 5816 5817 5818 5818 5819 5819 5820 5820 5820 5821 5821 5821 5821 5822 5822 5822 5822 5822 5822 5822 5822 5822 5822 5822 5821 5820 5819 5818 5817 5816 5815 5814 5814 5813 5812 5810 5809 5807 5805
5810 5810 5811 5812 5813 5813 5814 5815 5816 5816 5817 5817 5817 5818 5818 5819 5819 5819 5820 5820 5820 5820 5820 5820 5820 5820 5820 5819 5819 5818 5817 5816 5815 5814 5813 5812 5811 5810 5809 5808 5806 5804 5803
5805 5806 5807 5807 5808 5809 5810 5811 5812 5812 5813 5813 5814 5815 5815 5816 5816 5816 5817 5817 5817 5817 5817 5818 5818 5817 5817 5817 5816 5816 5815 5814 5813 5812 5811 5810 5809 5807 5806 5805 5803 5801 5800
5799 5800 5801 5802 5803 5804 5805 5807 5807 5808 5809 5809 5810 5811 5811 5812 5813 5813 5814 5814 5814 5814 5815 5815 5815 5814 5814 5814 5813 5813 5812 5811 5810 5809 5808 5807 5806 5804 5803 5801 5799 5798 5796
5793 5794 5796 5797 5798 5799 5800 5801 5802 5803 5804 5805 5806 5807 5807 5808 5809 5809 5810 5810 5811 5811 5811 5811 5811 5811 5811 5810 5810 5810 5809 5808 5807 5806 5805 5804 5802 5801 5799 5798 5796 5794 5792
5786 5788 5789 5791 5792 5794 5795 5796 5797 5798 5799 5800 5801 5802 5803 5804 5804 5805 5806 5806 5807 5807 5807 5808 5807 5807 5807 5807 5806 5806 5805 5805 5804 5803 5802 5800 5799 5797 5795 5793 5792 5790 5788
5779 5781 5782 5784 5786 5788 5789 5790 5791 5793 5794 5795 5796 5797 5798 5799 5800 5801 5801 5802 5802 5803 5803 5803 5803 5803 5803 5803 5802 5802 5801 5800 5800 5799 5797 5796 5795 5793 5791 5789 5787 5785 5784
5772 5774 5775 5777 5779 5781 5782 5784 5785 5787 5788 5790 5791 5792 5793 5794 5795 5796 5796 5797 5798 5798 5798 5798 5798 5798 5798 5798 5798 5797 5797 5796 5795 5794 5793 5792 5790 5789 5787 5785 5783 5781 5779
5764 5766 5768 5770 5772 5774 5776 5777 5779 5780 5782 5783 5784 5786 5787 5788 5789 5790 5791 5792 5792 5793 5793 5793 5793 5793 5793 5793 5792 5792 5792 5791 5790 5789 5788 5787 5785 5784 5782 5780 5778 5776 5774